Theta_e
327 326 326 326 326 327 327 327 326 326 327 327 326 326 326 326 326 326 326 326 325 325 325 324 324 324 324 324 324 324 324 324 324 324 324 323 323 323 323 323 323 323 323 323 322 322 321 321 321 321 321 321 322 322 322 323 323 323 324 324 324 324 324 324 323 323 322 322 321 322 321 320 319 319 319 318 318 317 317 317 317 317 316 316 315
327 327 327 327 327 327 327 327 327 327 327 327 327 327 326 326 326 326 325 325 325 325 325 324 324 324 324 323 323 323 323 323 323 324 324 323 323 323 323 323 323 323 324 324 323 323 322 321 321 321 321 321 322 322 322 322 323 323 323 323 324 324 324 324 324 324 324 324 323 323 322 321 320 319 319 319 318 318 318 318 318 317 317 317 316
326 326 326 327 327 327 327 327 327 327 327 327 327 326 325 325 325 324 323 323 324 324 324 323 323 323 323 324 324 323 323 323 323 323 323 323 323 323 322 322 322 322 323 323 323 324 323 322 322 322 322 322 322 322 322 322 322 322 322 323 323 323 323 323 323 324 324 324 324 324 323 322 322 321 321 320 319 319 318 318 318 318 317 317 317
325 326 326 326 326 326 326 326 327 327 327 327 326 326 325 324 324 323 323 323 324 324 322 322 321 321 321 322 323 323 323 323 323 323 323 323 323 323 322 321 321 322 321 320 321 322 323 323 323 323 323 323 322 322 322 322 321 321 321 321 321 321 321 322 322 323 323 323 323 323 323 323 323 323 322 322 321 321 320 319 319 318 318 318 317
324 325 325 325 325 325 325 326 326 326 327 327 326 326 326 325 324 323 323 323 323 323 321 321 320 320 320 321 322 323 323 322 322 323 323 323 322 321 320 320 321 321 320 319 319 321 323 323 323 323 323 323 323 322 322 322 321 321 321 321 321 322 322 322 323 323 323 323 323 323 323 323 323 324 323 323 323 323 322 321 321 321 320 320 319
324 324 324 323 323 324 324 324 324 325 325 325 326 326 325 325 324 323 323 322 323 323 321 321 320 320 321 322 323 323 322 320 320 323 323 321 320 319 319 321 321 320 320 320 321 322 322 322 322 322 322 323 323 323 323 322 322 322 322 322 322 323 323 322 322 323 323 323 323 323 323 323 323 323 323 323 323 323 323 322 322 322 321 322 320
325 324 324 323 322 322 322 322 322 322 322 323 323 324 324 323 322 322 322 322 323 321 321 321 319 319 320 321 321 321 320 319 319 321 321 319 319 319 320 321 320 320 320 322 322 322 322 321 320 321 322 322 323 322 322 322 322 322 322 322 322 322 323 322 322 322 322 323 323 323 323 323 322 322 323 323 323 323 323 323 323 322 322 322 321
325 325 324 323 321 321 322 322 322 321 321 321 321 322 322 322 321 321 320 319 319 319 320 320 319 318 319 319 319 319 319 320 319 319 318 318 318 318 320 321 320 320 321 321 321 321 320 319 319 320 321 321 322 322 322 321 322 322 322 322 322 322 322 322 322 322 322 322 322 322 321 321 321 321 322 322 322 322 323 323 323 322 321 321 321
324 324 324 324 324 322 322 322 322 321 321 320 320 321 321 320 320 320 319 318 319 320 320 320 320 320 319 318 318 319 321 322 321 320 319 319 319 320 320 320 320 319 319 319 319 319 319 317 316 317 319 320 321 321 321 321 321 321 321 321 320 320 321 321 321 321 321 320 321 320 320 320 320 320 320 320 320 320 321 321 321 321 321 321 321
324 324 324 325 325 324 323 322 321 320 320 320 320 321 320 320 319 319 319 320 321 322 321 321 321 320 319 319 320 321 322 324 324 322 320 320 321 320 319 319 319 318 318 317 317 318 318 317 316 315 316 318 319 319 320 320 320 320 320 320 320 319 320 320 320 320 320 320 320 320 320 320 320 320 320 319 320 320 320 320 320 320 320 320 321
326 326 325 325 325 325 325 324 323 322 322 322 322 321 320 321 320 319 321 322 323 323 323 322 321 320 319 319 321 321 321 322 322 322 320 319 319 317 316 318 318 318 317 316 316 316 318 318 317 316 315 315 316 317 317 318 318 318 319 319 318 318 319 319 319 319 319 319 319 319 319 320 320 321 321 321 320 320 319 319 319 319 319 319 320
326 326 325 325 325 325 325 325 324 324 324 324 323 322 320 322 323 321 321 323 324 325 324 323 322 322 318 318 321 322 319 318 319 320 319 316 316 316 317 317 317 317 315 314 313 315 316 316 315 314 314 313 313 313 313 314 315 315 315 316 315 315 316 316 316 316 316 317 317 317 318 318 319 319 320 320 319 319 319 319 318 318 319 319 319
326 326 325 325 325 325 325 326 325 325 325 323 323 323 322 324 326 323 321 322 324 324 324 323 324 324 319 317 322 322 319 317 317 317 316 315 316 317 316 315 315 315 312 312 312 312 312 312 311 311 311 311 311 311 311 311 311 312 312 312 313 313 313 313 313 313 313 313 313 314 314 314 314 315 316 316 316 317 317 317 317 317 318 318 319
324 324 325 326 326 326 325 325 325 324 324 323 324 323 322 324 325 323 322 322 323 324 325 326 326 324 320 319 322 320 316 316 317 316 315 315 315 315 314 313 313 312 311 310 310 310 310 309 308 308 308 307 308 308 308 308 309 310 310 311 311 310 310 310 310 310 310 310 311 310 311 312 312 313 314 315 315 315 315 315 315 316 316 317 317
325 325 325 324 324 325 323 323 324 323 323 324 322 321 323 325 323 321 321 322 324 326 326 327 325 323 322 322 322 318 315 316 315 313 314 314 313 312 311 311 311 310 309 308 307 307 306 305 305 304 304 303 303 303 303 303 304 304 304 304 304 303 303 303 303 303 303 303 303 304 305 307 309 311 313 314 314 314 314 315 315 315 315 315 315
324 325 324 323 325 327 324 324 325 323 323 323 321 321 323 324 321 320 322 323 325 326 326 326 324 322 323 323 321 318 318 317 316 314 313 312 311 310 310 309 308 307 306 305 305 304 303 302 302 301 301 300 300 300 299 299 299 299 298 298 298 298 298 298 297 297 297 297 297 298 298 299 301 303 305 309 311 311 312 313 313 314 315 315 315
323 322 322 323 326 328 325 326 326 323 321 321 322 322 322 322 321 322 323 323 324 326 326 325 323 321 321 321 319 318 318 318 317 316 314 311 310 309 308 307 306 305 304 304 303 302 302 301 301 300 300 300 299 299 298 298 298 298 297 297 297 297 297 297 297 296 296 296 296 297 297 297 297 297 298 301 302 304 305 304 304 307 310 312 313
324 326 324 323 324 323 322 325 327 325 321 320 323 325 324 325 325 325 324 322 321 321 321 320 320 319 318 318 317 317 318 318 317 317 314 311 309 307 305 303 304 302 302 303 302 302 301 300 300 300 299 299 298 298 298 298 297 297 297 296 296 296 296 296 296 296 296 296 296 296 296 296 296 296 297 296 297 299 299 297 297 299 302 306 310
324 326 323 322 324 323 324 326 328 327 321 320 325 328 328 328 327 327 326 322 318 317 317 315 315 315 314 314 313 314 316 316 316 315 313 310 306 304 302 300 300 300 300 300 300 300 299 299 299 299 298 298 298 298 297 297 297 297 296 296 296 296 296 296 296 296 296 296 296 295 295 295 295 296 296 296 295 296 296 296 295 295 297 299 304
322 321 320 325 329 328 327 325 324 324 322 324 326 325 325 325 323 322 321 319 316 315 314 313 312 311 311 311 311 311 312 312 312 312 310 307 303 300 300 298 299 299 298 298 298 298 298 298 298 298 298 298 297 297 297 297 296 296 296 296 296 296 296 296 296 296 296 296 296 296 295 295 295 295 295 295 295 295 295 295 295 296 295 297 301
322 320 321 326 329 327 325 324 323 323 325 325 322 319 319 318 317 317 316 315 314 312 311 311 311 310 310 309 309 309 308 308 307 305 303 301 299 298 298 298 299 299 298 297 298 298 297 297 298 297 297 297 297 296 296 296 296 296 296 296 296 296 296 296 296 296 296 296 296 296 296 296 295 295 295 295 294 295 294 294 295 294 295 299 304
320 319 320 321 322 323 322 322 322 322 322 320 318 317 316 315 315 315 313 312 311 310 310 309 309 308 308 307 306 305 304 303 301 299 298 298 297 297 297 297 298 299 298 298 297 297 297 297 297 297 296 296 296 296 296 296 296 296 296 296 296 296 296 296 296 296 296 296 296 296 296 296 296 295 295 295 294 294 294 294 294 294 295 300 304
318 318 319 318 319 321 321 320 319 318 317 315 314 314 313 313 312 311 310 310 309 308 307 307 306 305 305 304 303 301 300 299 298 297 297 296 296 297 297 297 297 298 298 298 298 297 297 297 297 296 296 296 295 295 295 295 295 296 295 296 296 296 296 296 296 296 296 296 296 296 296 296 296 296 295 295 294 294 294 293 293 293 294 298 302
319 320 319 317 318 319 318 317 316 315 314 312 312 312 311 311 310 309 309 308 307 306 305 305 304 302 301 300 299 298 297 297 296 296 296 296 296 296 297 297 297 298 298 298 298 297 297 296 296 296 295 295 295 295 295 295 295 295 295 295 295 295 295 296 295 295 295 295 295 295 295 295 295 295 295 295 294 294 293 293 293 293 293 296 302
319 320 317 316 317 316 315 314 313 312 312 311 311 311 310 310 309 308 306 305 305 304 303 302 301 300 299 298 298 297 297 296 296 296 296 296 296 296 296 296 296 297 298 297 297 297 296 296 295 295 295 295 295 295 295 295 295 295 295 295 295 295 295 295 295 295 295 294 294 294 294 294 294 294 294 294 294 293 293 292 292 292 292 294 299
320 320 316 316 316 314 313 312 312 312 311 311 311 310 309 308 306 305 304 304 304 303 302 301 299 299 298 297 297 297 296 296 296 296 296 296 296 296 296 296 296 297 297 297 297 296 296 295 295 295 295 295 295 295 295 294 295 295 295 295 295 295 294 294 294 294 294 293 293 292 292 292 292 292 292 292 292 292 292 292 291 291 292 295 297
321 320 317 317 316 313 312 311 311 312 311 310 310 309 307 306 305 304 304 303 302 301 300 299 298 298 297 297 296 296 296 296 296 296 296 295 295 295 294 295 295 296 296 296 296 296 295 295 295 295 295 295 294 294 294 294 294 294 294 294 294 294 293 293 293 293 292 292 292 291 291 291 291 291 291 291 291 290 290 290 290 290 290 292 293
320 319 318 317 315 313 312 311 311 311 310 310 308 307 305 304 304 304 303 302 301 300 299 298 298 297 297 297 296 296 296 296 296 295 295 295 294 294 294 293 293 294 295 296 295 295 295 295 295 295 294 294 294 294 294 294 293 293 293 293 292 292 292 292 292 291 291 291 290 290 290 290 290 290 290 290 290 290 290 290 290 291 291 292 292
318 318 317 316 313 312 311 311 311 310 309 308 306 305 304 304 304 303 302 301 300 299 298 298 297 297 297 296 296 296 295 295 295 295 294 294 294 294 294 293 293 292 292 294 295 295 295 294 294 294 295 294 294 294 293 293 293 292 292 292 292 292 291 291 291 291 291 290 289 289 289 289 289 289 290 290 291 292 292 293 293 294 294 294 294
317 317 315 313 312 311 311 311 310 309 308 306 304 304 303 303 303 302 301 300 299 299 298 297 297 296 296 296 296 296 295 295 295 294 294 294 293 293 293 293 293 292 291 292 293 295 294 294 294 294 295 294 293 293 293 293 293 293 292 291 292 291 291 291 291 291 290 290 289 288 288 288 289 289 290 291 292 292 293 293 293 294 294 293 293
317 315 312 311 311 311 310 310 309 308 305 304 303 303 303 303 302 301 300 299 298 298 297 297 296 296 296 296 296 295 295 295 294 294 294 293 293 293 293 293 292 292 292 291 292 294 294 294 294 294 294 294 293 293 293 293 292 292 292 291 291 291 290 291 290 290 290 289 289 288 287 287 288 289 289 290 291 291 291 291 292 292 292 293 293
315 312 311 311 311 310 310 309 307 305 303 303 302 302 302 301 301 300 299 298 297 297 297 296 296 296 296 296 295 295 295 294 294 293 293 293 293 293 293 293 293 292 293 292 292 294 295 294 294 294 293 293 294 293 293 293 292 292 291 291 291 290 290 290 290 290 289 288 287 286 286 287 288 288 289 289 290 290 290 290 291 291 291 292 292
312 311 311 311 310 310 309 307 305 303 302 302 302 302 301 300 300 299 298 297 297 297 296 296 296 296 296 295 295 295 294 294 294 293 293 293 293 293 293 293 293 292 292 292 292 293 294 294 293 293 292 292 293 292 291 292 292 291 291 290 290 290 290 289 289 289 288 287 286 286 286 287 287 288 288 288 289 289 289 290 290 290 291 290 290
311 311 311 310 310 309 307 305 303 302 302 302 302 301 300 299 298 298 297 297 297 296 296 296 296 296 295 295 295 294 294 293 293 293 293 293 293 293 293 293 293 292 291 291 291 291 293 294 294 293 292 291 291 291 290 290 290 290 290 290 290 290 290 289 289 288 287 285 285 286 286 286 286 287 287 288 288 289 289 290 290 290 290 289 289
311 311 310 310 309 307 305 303 302 302 302 302 301 300 299 298 298 297 297 296 296 296 296 296 296 295 295 295 294 294 293 293 293 293 293 293 293 293 293 293 292 292 291 290 290 290 291 292 293 293 292 291 291 290 290 289 289 289 289 290 289 289 290 289 289 288 287 285 285 285 285 285 286 286 287 288 288 288 289 289 290 290 289 289 289
311 310 310 309 307 305 303 302 302 302 302 301 299 299 298 298 297 297 296 296 296 296 296 296 295 295 295 294 294 293 293 293 293 293 293 293 293 293 293 292 292 291 291 290 290 289 289 291 292 292 291 290 290 290 289 289 289 289 289 289 289 288 289 289 288 287 286 285 285 285 285 285 285 285 287 287 286 286 287 287 288 288 288 288 289
310 310 309 307 305 303 302 302 302 302 300 299 298 298 297 297 297 296 296 296 296 296 296 295 295 295 294 294 293 293 293 293 293 293 293 293 293 293 292 292 292 291 291 290 289 289 289 289 290 291 290 289 290 289 289 288 288 288 288 288 288 288 288 288 288 286 285 284 285 285 285 285 285 285 286 286 286 286 286 286 286 286 286 287 288
310 309 308 306 304 302 302 302 302 301 299 298 297 297 297 296 296 296 296 296 296 295 295 295 294 294 293 293 293 293 293 293 293 293 293 293 292 292 292 292 291 291 290 290 289 289 289 289 289 289 289 289 289 289 288 287 286 286 286 286 287 287 287 287 287 286 284 284 284 284 284 285 285 285 285 286 286 286 286 286 286 286 286 287 288
309 308 306 304 302 302 302 301 300 299 297 297 297 296 296 296 296 296 296 296 295 295 295 294 294 293 293 293 293 293 293 293 292 292 292 292 292 292 292 291 290 290 289 289 289 288 288 288 288 288 288 288 288 287 288 287 286 285 284 283 285 286 285 285 286 285 284 284 284 284 284 285 285 285 285 286 286 287 287 287 287 286 286 287 287
307 305 304 303 302 302 301 300 299 297 297 296 296 296 296 296 296 296 296 295 295 295 294 294 293 293 292 292 292 292 292 292 292 292 292 292 292 291 291 290 289 289 289 288 288 288 288 288 288 287 287 288 287 286 287 286 286 285 284 282 282 283 283 284 284 284 284 284 284 284 284 285 285 285 285 286 286 287 287 287 288 287 288 288 288
304 303 302 302 302 302 301 299 297 296 296 296 296 296 296 296 296 296 295 295 294 294 294 293 293 292 292 292 292 292 292 292 291 291 291 291 291 290 290 289 289 289 288 288 288 288 288 288 287 287 286 287 286 285 285 285 284 283 283 282 282 282 282 283 283 284 284 285 285 284 285 285 286 286 285 286 286 287 287 287 288 288 288 289 289
303 302 302 302 301 301 299 297 297 296 296 296 296 296 296 296 296 295 295 294 294 293 293 292 292 292 292 292 292 292 291 291 291 291 291 291 290 290 289 289 288 288 288 288 288 287 287 287 287 286 285 286 286 284 283 283 283 282 282 282 282 282 282 282 283 284 284 285 285 284 285 285 286 286 286 286 286 286 287 287 287 288 288 289 289
303 302 302 302 301 300 297 296 296 296 296 296 296 296 296 296 295 294 294 294 294 293 292 292 292 292 292 292 291 291 291 291 291 291 291 290 290 289 289 288 288 288 288 287 287 287 286 286 286 285 283 284 284 283 282 282 282 282 282 281 281 282 282 282 282 283 284 284 285 285 285 285 285 285 285 286 286 286 286 286 287 288 288 289 289
302 301 301 301 299 298 296 296 296 296 296 296 296 296 296 295 294 294 294 293 293 293 292 292 292 292 291 291 291 291 291 291 291 290 290 290 289 289 289 288 288 287 287 286 286 286 285 285 285 285 283 282 283 283 282 281 281 281 281 281 281 281 281 281 282 282 284 284 284 285 285 285 285 285 285 285 285 285 285 285 286 287 288 289 289
301 301 300 299 297 296 296 296 295 295 296 296 296 296 295 294 294 294 293 293 292 292 292 292 292 291 291 291 290 290 290 290 290 290 290 290 289 289 288 288 288 287 287 286 285 285 284 284 284 284 283 282 282 282 282 281 280 281 281 281 281 280 280 281 281 282 284 284 284 284 285 285 285 285 285 285 285 285 285 285 286 286 287 288 288
301 300 299 297 296 295 295 295 295 295 295 295 295 295 294 294 294 293 293 292 292 292 291 291 291 291 291 291 290 290 290 290 290 289 289 289 289 288 288 288 287 287 286 286 285 284 284 283 283 283 283 282 282 282 282 281 280 280 281 280 280 280 280 280 281 282 283 284 284 284 285 285 285 285 284 284 285 285 285 286 285 285 286 288 288
300 299 297 296 295 295 295 295 295 295 295 295 295 294 294 293 293 293 292 292 292 291 291 291 291 291 290 290 290 290 289 289 289 289 289 288 288 288 288 287 287 287 286 286 285 285 284 283 283 283 283 283 282 282 281 280 280 281 280 280 280 279 279 279 280 282 283 283 283 284 284 284 284 284 284 284 285 285 286 286 286 285 286 288 289
298 297 296 295 295 295 295 294 294 294 294 294 294 294 294 293 293 293 292 292 291 291 291 290 290 290 290 290 289 289 289 288 288 288 288 288 288 288 288 287 287 287 286 286 285 285 284 284 283 283 283 283 283 282 281 281 281 280 279 280 280 279 278 279 279 280 281 282 282 283 283 284 283 283 284 285 285 286 286 286 286 286 287 289 290
297 296 295 295 295 294 294 294 294 294 294 294 294 294 293 293 293 292 292 292 291 291 290 290 290 290 289 289 289 289 288 288 288 287 287 287 287 287 287 287 287 287 287 286 286 285 284 284 283 284 284 283 283 283 282 281 280 279 279 279 279 278 278 278 279 279 280 281 282 282 282 282 283 283 284 285 285 285 286 286 286 287 288 289 290
296 295 295 295 294 294 294 294 294 293 293 293 294 294 293 293 293 292 292 291 291 290 290 290 290 289 289 289 289 288 288 287 287 287 287 287 287 287 287 287 287 287 287 287 286 286 286 285 285 284 284 284 284 284 284 282 280 279 278 277 277 277 277 278 279 279 280 281 281 281 281 281 282 282 283 284 285 285 285 285 286 287 288 289 289
295 295 294 294 294 294 294 293 293 293 293 294 294 293 293 294 293 292 292 291 290 290 290 290 289 289 289 288 288 288 287 287 287 287 286 286 286 286 286 286 286 287 287 286 286 286 286 286 286 285 285 285 285 285 284 283 282 281 279 277 277 277 278 278 279 280 280 281 281 281 281 281 281 282 282 282 283 285 285 285 285 287 288 288 288
Wind_Speed
4 4 4 3 3 3 4 4 5 6 6 7 7 7 7 7 7 8 8 8 8 10 10 10 10 11 12 13 13 14 14 14 15 16 17 17 17 16 17 17 18 19 19 20 20 20 20 20 20 19 19 18 18 18 20 21 21 22 22 23 23 24 25 26 27 27 26 26 30 34 32 28 27 26 25 25 25 24 23 22 23 24 24 24 25
6 6 5 5 6 5 5 6 6 7 7 8 8 8 8 8 8 9 10 9 9 11 12 11 10 11 13 14 15 15 16 16 16 17 17 17 17 17 17 18 19 20 21 21 21 21 21 20 20 20 20 21 21 21 22 23 23 24 24 25 24 25 26 26 27 27 27 28 30 33 33 30 28 28 28 28 28 27 24 24 24 25 25 25 26
8 8 7 7 8 7 7 7 8 9 9 9 9 9 10 9 9 10 12 11 11 12 13 13 11 10 11 14 16 17 17 17 18 18 18 18 17 18 19 20 21 22 22 22 22 22 21 21 21 21 21 22 22 23 23 24 25 25 26 27 27 27 29 29 29 29 29 30 30 32 34 34 33 32 31 29 29 28 26 26 27 27 27 27 27
9 10 10 10 10 10 10 10 10 10 11 11 11 11 12 11 11 12 13 13 13 14 16 17 16 14 13 14 18 19 18 19 19 19 19 19 19 20 21 22 22 23 23 23 23 23 23 23 23 23 23 23 23 24 24 24 25 25 26 27 28 29 30 31 31 31 32 32 32 32 34 36 35 34 34 33 32 31 29 29 29 30 30 30 30
10 10 11 11 11 11 12 12 12 12 13 13 13 13 13 13 13 14 15 14 15 17 18 19 19 18 17 17 19 20 20 21 19 19 19 19 20 22 22 22 22 22 22 21 21 22 23 23 24 24 24 23 24 24 24 24 24 25 25 26 27 27 29 30 32 32 32 34 34 33 34 35 35 35 35 35 34 35 35 33 33 33 33 35 35
11 11 12 12 12 12 13 13 13 14 14 15 15 15 15 15 15 16 16 16 17 19 20 21 20 19 17 18 20 21 22 22 20 18 19 20 21 22 21 20 20 20 20 19 20 21 22 23 23 24 23 23 23 23 23 23 23 24 25 26 27 28 28 30 31 32 32 34 34 33 34 34 35 37 36 35 35 36 38 37 37 37 37 40 39
12 13 13 13 13 13 13 14 14 15 15 16 16 17 18 17 16 17 18 17 17 19 21 23 23 21 19 19 20 20 20 19 18 18 19 21 21 21 21 19 18 18 18 18 19 20 21 22 22 22 22 22 23 23 23 23 24 25 26 27 28 28 29 30 30 31 32 32 32 33 33 33 35 37 37 37 37 37 38 38 38 38 39 41 41
12 13 13 14 14 13 13 14 15 16 17 17 17 17 17 18 18 19 20 18 17 18 18 19 20 19 19 19 17 17 16 16 16 17 18 19 19 18 17 16 16 17 18 19 20 20 21 21 22 22 22 22 23 23 23 24 24 26 27 28 29 30 31 31 31 32 32 32 32 32 33 33 34 36 37 38 40 40 39 39 40 40 40 39 40
12 13 13 14 15 14 14 14 15 15 16 17 17 17 18 18 18 18 19 16 14 15 14 15 17 18 18 17 15 15 16 16 16 16 18 18 16 14 15 16 18 18 18 19 19 19 19 20 20 21 22 23 23 24 25 25 26 27 29 30 31 32 32 32 32 32 33 34 34 34 34 34 34 35 36 38 39 40 40 40 42 43 41 38 39
13 13 14 14 15 16 15 14 13 13 14 14 14 16 16 15 15 14 12 12 12 13 15 17 19 19 17 15 15 16 18 17 15 16 18 16 14 16 19 19 18 17 19 19 19 18 19 20 20 20 21 23 24 26 27 28 29 30 31 31 31 32 32 32 33 34 34 35 35 36 36 36 35 35 36 37 38 39 39 40 41 43 44 43 42
14 15 14 14 14 16 16 14 14 14 14 15 15 15 13 10 12 11 8 9 12 14 17 19 19 19 18 17 17 18 18 17 16 17 17 16 17 20 20 18 18 20 21 22 21 20 21 23 22 21 21 22 24 26 27 29 30 32 32 32 32 33 33 34 35 36 36 36 36 37 36 36 35 35 35 36 37 39 39 40 40 40 42 45 43
15 15 15 15 14 16 16 15 16 15 15 17 16 14 11 10 11 10 9 10 12 14 16 18 20 21 21 20 19 21 20 19 18 16 16 18 20 21 18 18 20 23 23 23 23 23 23 24 24 23 22 22 22 23 25 26 28 30 32 32 32 32 33 33 35 35 36 36 37 37 38 38 38 38 38 38 38 39 41 40 39 37 39 42 42
16 15 15 15 15 16 16 16 16 16 16 16 15 14 12 11 12 12 12 12 12 12 14 18 21 23 25 25 23 23 22 21 18 14 16 20 21 19 19 21 23 24 24 24 23 23 23 24 24 24 23 22 22 22 22 22 22 24 26 27 27 27 27 28 29 30 31 32 33 34 35 36 38 38 37 37 38 39 40 41 39 37 38 40 41
15 15 15 15 16 16 16 17 17 18 17 15 15 14 11 11 13 13 12 14 13 11 14 19 20 22 26 27 26 25 24 21 17 18 22 21 19 20 22 23 23 23 23 23 23 23 23 23 23 23 23 22 22 22 22 22 21 21 22 23 23 23 24 24 25 26 27 28 29 30 31 32 33 33 33 33 35 37 38 39 39 38 39 40 40
14 15 16 16 15 14 14 14 16 17 16 15 14 10 8 10 12 11 11 13 14 13 15 16 17 20 22 22 25 27 26 21 21 24 22 19 19 22 24 23 22 22 23 23 23 22 22 23 23 23 23 24 23 23 23 23 23 23 23 23 24 25 26 27 27 28 28 29 30 31 31 32 32 33 32 31 33 35 35 37 37 37 38 39 40
15 16 17 14 12 13 13 12 13 15 14 14 10 5 7 10 8 9 12 14 15 16 14 13 15 17 17 18 21 22 20 22 28 26 19 18 20 20 21 21 21 22 22 23 23 22 22 23 23 23 24 25 25 25 25 25 24 25 26 27 28 29 30 31 31 32 32 33 33 34 34 34 35 35 34 33 34 34 34 36 37 37 38 38 39
15 14 14 13 13 16 14 12 14 13 11 9 5 3 6 8 8 10 12 15 15 15 15 14 15 15 16 18 17 15 17 23 28 24 20 22 21 18 18 18 20 21 22 22 22 22 24 24 23 24 25 25 26 27 27 27 28 29 30 31 31 32 33 33 34 34 35 35 36 36 37 37 37 37 37 36 37 37 37 39 40 40 40 39 40
14 14 15 12 12 14 12 12 14 12 9 8 7 9 10 11 12 12 12 16 16 16 17 18 17 17 18 18 15 13 18 22 23 23 26 27 24 21 19 18 19 21 21 22 22 23 24 24 25 25 25 25 26 27 28 30 31 32 34 34 34 35 35 36 36 36 36 37 37 38 39 39 39 40 39 40 41 41 42 43 43 43 42 40 41
15 17 15 9 10 12 11 13 14 12 12 12 13 14 14 14 15 14 15 19 19 18 19 18 17 17 16 17 15 14 16 20 22 26 28 28 27 24 22 22 23 23 23 22 23 24 24 24 25 25 25 27 28 29 30 31 32 34 35 36 36 37 38 39 39 39 40 40 41 41 41 41 42 42 42 43 43 43 44 45 46 46 44 43 41
16 16 11 9 14 15 15 16 15 14 14 13 14 14 13 14 16 16 18 20 19 18 16 14 13 12 11 12 13 13 14 17 20 22 24 28 31 28 26 28 27 27 27 25 25 27 27 26 26 25 26 27 28 29 30 32 34 35 36 37 38 38 40 41 42 42 43 44 44 45 45 45 45 45 45 46 46 46 47 47 48 48 47 45 41
17 16 13 14 18 17 17 16 14 15 15 14 15 15 14 15 16 16 16 15 13 10 9 8 9 9 9 9 10 12 14 15 16 18 20 25 30 32 32 33 33 31 29 29 30 29 28 28 26 25 27 27 28 30 31 33 34 36 36 37 38 39 41 42 43 44 45 46 47 47 48 49 49 49 49 49 50 49 49 49 50 49 47 44 41
18 16 15 17 19 18 17 17 16 16 15 15 15 14 14 14 13 11 9 7 5 5 6 7 8 9 10 10 11 12 13 14 15 17 20 22 27 31 34 35 38 36 33 33 33 31 31 30 28 28 29 30 31 32 34 35 36 37 37 39 40 41 42 43 44 46 47 48 49 49 50 51 52 52 53 54 53 53 53 52 52 51 48 44 42
17 16 15 15 17 17 16 16 16 15 13 12 11 9 9 7 5 4 3 4 5 6 7 7 8 9 10 11 12 12 13 14 15 17 19 21 26 31 32 34 37 38 37 37 35 34 34 31 30 32 33 34 35 35 37 38 38 39 40 42 42 43 43 44 46 47 48 49 50 51 52 53 54 54 55 56 56 57 56 56 55 54 51 47 44
17 17 16 12 13 14 12 12 12 11 9 7 6 4 2 1 1 2 3 4 5 6 6 7 8 9 10 10 11 12 13 14 15 16 19 21 25 30 33 35 38 40 39 39 39 38 35 32 34 35 36 37 37 38 40 40 41 41 43 44 44 45 45 47 48 49 50 50 51 51 52 53 54 54 55 56 56 57 57 57 57 55 54 50 44
17 17 15 10 10 9 8 9 8 7 6 4 3 2 1 0 1 2 3 4 4 5 6 7 8 9 9 10 11 12 12 14 15 17 19 21 24 29 32 34 38 41 42 41 41 40 37 35 37 38 39 39 39 41 42 43 44 45 46 47 48 48 49 50 51 52 53 54 54 54 54 55 55 55 55 56 56 56 57 57 57 55 54 51 47
16 16 14 10 9 8 7 7 6 5 5 4 3 2 1 0 1 1 2 3 4 5 6 7 8 9 10 10 11 12 13 14 16 18 20 22 24 28 32 35 38 41 42 42 42 41 40 39 39 39 40 41 43 44 45 46 47 48 48 50 51 51 52 53 54 55 56 56 56 56 56 56 56 56 56 56 56 56 56 56 56 55 54 50 49
16 17 13 11 9 8 7 7 6 6 5 4 3 2 2 1 1 1 2 3 4 5 6 7 8 9 10 10 11 12 13 15 16 18 20 22 23 25 29 34 39 43 44 45 44 43 43 43 42 42 42 44 46 47 48 49 49 51 52 53 54 55 55 56 57 58 58 58 58 58 58 58 57 56 56 56 55 55 55 54 54 54 53 52 52
18 17 13 11 10 9 8 8 7 7 6 5 4 4 3 2 1 1 2 3 4 6 7 8 9 9 10 11 12 13 14 15 17 18 19 21 22 23 26 29 33 40 45 49 49 46 45 46 46 46 46 47 49 50 51 52 52 54 55 56 58 59 60 60 60 61 61 61 60 58 58 58 58 57 56 55 53 52 51 50 50 49 50 50 51
17 15 12 11 11 10 9 9 8 7 7 7 6 5 4 3 2 2 3 4 5 7 8 9 9 10 11 12 13 14 15 16 17 19 19 20 21 22 25 26 28 32 38 45 52 50 46 48 48 48 49 51 52 53 54 55 55 56 58 59 60 62 63 63 63 63 63 62 60 58 58 58 57 56 53 51 48 47 47 46 46 46 46 47 48
15 13 12 12 12 12 11 11 10 9 8 8 6 5 4 3 2 2 3 5 6 8 8 9 10 11 12 13 14 15 16 17 18 19 19 20 21 22 24 25 27 29 31 38 48 51 48 49 50 49 51 54 54 55 55 56 57 58 60 61 62 63 64 65 65 64 63 63 61 57 56 56 55 52 49 46 45 45 45 45 45 45 46 47 48
14 13 13 13 14 14 13 12 11 10 9 8 7 5 4 3 2 3 5 6 7 8 9 10 11 12 13 14 15 16 17 18 18 19 19 20 22 23 25 26 26 29 31 34 43 51 50 49 52 51 51 54 55 56 57 58 58 59 61 63 64 64 65 65 65 64 64 63 60 58 56 56 54 50 47 46 46 46 46 46 45 45 45 46 47
15 15 15 15 16 15 14 13 12 11 9 8 7 5 4 3 3 4 6 6 7 9 9 11 12 13 15 16 17 17 17 18 18 18 20 21 23 24 25 27 27 29 32 34 40 50 51 49 51 53 52 54 56 57 58 60 60 61 62 63 64 65 65 65 65 65 63 61 60 59 55 51 49 48 47 46 46 47 47 46 45 44 44 45 47
17 17 18 18 18 16 15 14 12 11 9 8 7 5 3 3 4 5 6 7 8 10 10 12 13 14 16 17 17 18 17 18 19 20 21 22 23 25 26 28 29 29 32 35 39 47 52 51 51 53 54 54 56 57 58 61 63 64 64 63 63 64 64 64 64 64 62 59 58 57 52 48 47 46 46 46 46 46 46 45 44 44 43 44 46
19 20 20 20 18 16 15 14 12 11 10 8 7 5 3 4 4 5 7 8 9 10 12 13 14 15 17 17 17 18 18 19 20 21 23 23 24 26 27 28 30 30 32 34 38 44 51 54 54 54 55 55 56 57 58 60 61 63 65 65 63 63 63 63 63 63 61 57 54 54 53 52 48 46 46 45 45 44 44 44 44 43 43 43 44
22 22 21 19 18 16 15 14 12 11 10 8 6 5 4 4 5 6 7 9 10 11 13 14 15 16 17 17 18 18 19 20 21 23 24 25 26 27 28 29 31 32 32 34 37 41 48 53 55 55 56 57 57 57 58 58 59 60 62 63 62 62 63 63 63 62 61 57 53 53 54 52 49 48 46 44 44 45 45 45 44 43 43 43 43
23 23 21 19 17 16 15 14 13 11 10 8 6 5 5 5 6 7 8 9 11 12 14 15 16 16 17 18 19 19 20 21 22 23 24 26 27 28 29 31 32 34 34 35 37 39 44 50 53 54 55 56 57 57 57 58 58 58 58 59 60 61 61 62 61 60 59 56 54 54 53 51 51 49 45 46 49 50 49 49 47 47 47 46 45
24 23 21 19 18 17 16 14 12 11 9 8 7 6 5 6 6 7 9 10 12 13 15 16 17 17 18 19 20 20 21 22 23 24 25 27 28 29 30 32 34 35 36 37 38 39 41 46 50 53 54 54 56 57 55 55 57 57 56 58 60 60 61 63 62 58 56 55 55 55 53 51 51 50 48 49 51 50 49 49 48 48 47 45 43
24 22 21 20 19 17 16 14 12 11 9 8 7 7 6 6 7 8 9 11 13 14 15 16 17 18 19 19 21 22 22 23 24 25 26 28 29 31 33 35 36 37 37 38 38 39 41 44 47 50 53 53 55 56 55 53 54 55 55 57 59 59 60 62 63 60 55 53 54 54 53 52 51 51 50 49 49 48 46 45 44 42 41 40 40
23 22 21 20 19 17 15 14 12 11 10 9 8 7 6 7 7 9 10 12 14 15 16 17 17 18 19 20 21 22 23 25 26 27 28 29 31 33 34 36 36 37 38 38 39 40 42 44 46 48 51 53 53 54 54 54 53 53 52 53 58 59 58 59 61 60 56 54 52 52 51 52 52 51 49 49 50 49 46 44 41 40 39 38 38
23 22 21 19 18 17 15 13 12 11 10 9 8 7 7 7 8 10 11 12 13 15 16 17 18 18 19 21 22 23 24 25 27 28 29 31 33 34 35 35 36 36 38 39 40 41 43 45 47 47 50 53 52 52 53 54 54 54 52 51 54 57 56 56 57 56 54 53 52 52 52 52 53 52 50 51 50 48 47 46 43 42 41 39 38
24 22 21 19 18 16 15 13 13 12 11 9 8 7 7 8 9 11 12 12 13 15 16 17 18 19 20 21 22 24 25 26 27 28 29 31 33 34 35 35 36 37 38 39 40 42 44 45 47 47 49 52 52 50 51 52 51 52 52 50 51 53 54 54 55 53 51 51 51 53 53 52 53 53 52 51 50 48 48 45 43 44 43 41 40
24 23 21 20 18 16 15 14 13 12 10 9 8 8 8 9 11 11 12 13 14 15 16 17 18 20 21 22 23 24 25 26 27 28 30 31 32 33 33 34 35 37 38 40 40 41 42 45 46 45 46 50 51 48 47 49 49 50 50 50 51 52 53 55 55 53 50 49 51 54 54 51 52 54 53 51 49 48 48 47 45 45 43 41 40
25 23 22 20 18 16 16 15 14 12 10 9 9 9 9 10 11 12 13 14 15 16 17 18 19 21 22 23 23 24 25 26 27 29 30 30 31 32 33 33 34 35 36 38 40 40 41 42 44 43 42 45 48 47 45 47 47 48 49 48 48 50 52 53 55 55 51 48 50 55 55 51 51 53 52 50 48 48 49 49 49 45 41 39 38
25 23 21 19 18 17 17 15 14 12 11 10 10 9 10 10 11 12 14 15 16 17 19 20 21 22 23 23 24 24 25 27 28 29 30 30 31 32 33 33 34 34 34 35 36 38 38 39 42 43 41 41 45 46 44 44 44 46 47 47 46 48 50 50 51 53 50 47 49 53 54 52 50 50 50 48 48 49 49 50 50 46 42 40 40
24 23 21 20 19 18 17 15 13 12 11 10 10 10 10 11 12 13 15 16 17 18 20 21 22 24 24 24 24 25 26 27 28 29 31 32 32 33 33 34 34 34 34 33 33 33 34 35 39 42 40 38 41 43 42 39 40 42 44 45 46 46 47 47 48 50 48 45 46 49 51 50 48 48 49 48 48 50 50 49 48 48 46 43 41
24 22 21 20 19 18 16 15 13 12 11 10 10 10 10 11 13 14 16 17 18 20 21 22 24 25 25 26 26 26 27 27 28 30 31 33 33 33 34 34 34 34 34 34 34 33 33 33 35 39 40 38 39 41 40 36 36 38 41 43 43 42 43 45 45 45 43 40 40 44 48 47 45 48 50 50 49 51 51 47 46 47 48 44 39
23 22 22 20 19 18 16 15 14 12 11 10 10 10 11 12 14 15 17 18 20 21 22 23 24 25 26 26 27 27 27 28 29 30 32 33 33 34 35 35 36 36 35 35 35 35 35 34 34 37 39 38 39 40 37 34 34 36 36 37 38 38 40 42 43 43 41 38 37 40 42 42 43 47 50 50 49 50 51 47 45 45 46 42 32
24 23 22 21 19 18 16 15 14 12 11 10 10 10 11 13 14 16 18 20 21 22 22 23 24 25 26 27 27 27 28 28 29 30 31 32 33 35 36 37 37 37 36 36 36 36 36 35 35 37 38 39 40 39 37 36 34 32 32 35 36 36 38 40 41 43 42 40 37 36 37 41 43 45 48 48 47 48 48 45 43 43 43 39 22
25 24 23 21 19 18 17 15 14 12 11 10 10 11 12 14 15 17 19 21 22 22 23 23 24 25 25 27 27 27 28 28 29 29 30 32 33 35 37 38 39 39 39 38 38 37 37 37 37 38 39 41 41 40 39 36 29 26 30 34 35 35 36 38 39 41 43 42 37 35 38 42 42 42 45 46 44 43 43 41 40 37 31 24 8
26 25 23 21 20 18 17 15 13 12 11 10 11 12 13 15 16 18 20 22 23 23 23 23 24 24 25 26 26 27 27 28 28 28 30 32 33 35 37 39 40 41 41 41 42 41 41 40 40 41 41 42 42 42 42 38 31 28 29 30 31 33 35 37 39 41 43 41 37 37 41 45 43 40 41 43 42 40 38 36 34 26 19 20 20
25 24 23 21 20 18 17 15 13 11 10 10 11 13 15 16 18 20 21 23 23 24 24 24 24 25 25 25 25 26 26 26 27 28 29 31 32 34 35 37 39 40 41 41 42 44 44 44 44 44 43 44 44 44 43 41 37 34 30 28 29 31 34 37 39 41 42 42 39 40 42 45 44 39 36 35 37 39 35 31 27 16 14 19 21
Wind_Direction
290 297 309 311 312 323 326 324 324 325 324 318 317 318 316 317 317 319 320 318 320 320 320 323 322 322 319 318 317 315 314 315 315 314 316 318 320 323 325 325 326 326 324 323 322 321 319 316 314 313 312 314 311 306 305 302 303 302 300 301 300 297 296 296 296 296 297 292 289 294 294 290 289 289 289 287 284 282 277 273 273 274 272 270 273
269 278 286 291 296 303 304 304 307 307 306 305 306 306 306 308 312 314 310 309 318 320 320 321 321 323 322 323 323 318 316 314 312 312 313 314 315 317 319 321 321 321 321 320 321 320 319 317 314 313 313 313 312 308 305 303 300 298 298 298 297 295 294 293 294 293 293 291 289 290 291 290 287 284 286 287 288 286 279 273 273 276 274 271 270
261 268 273 276 283 287 287 291 294 292 290 291 292 295 298 302 305 304 303 310 319 314 309 307 307 311 318 323 319 314 314 313 312 312 311 311 311 311 314 317 317 317 316 316 317 318 317 315 312 311 311 310 308 305 303 301 299 298 298 297 296 295 295 294 293 292 290 289 289 290 290 291 290 287 286 284 284 282 276 275 277 277 276 272 272
261 264 267 267 271 274 275 278 279 281 282 282 282 287 292 296 298 299 303 311 313 309 306 306 308 312 317 318 314 314 316 314 314 313 312 312 311 311 313 315 316 315 313 312 312 313 314 313 311 309 308 307 305 304 301 299 297 296 296 295 294 295 295 294 293 293 292 290 289 290 290 291 289 285 285 284 283 283 278 278 278 277 276 275 274
264 266 265 264 266 267 269 270 269 272 275 277 278 280 284 288 292 296 300 304 304 305 308 310 314 317 320 319 316 318 317 313 313 313 313 313 312 312 314 315 317 316 314 312 311 311 312 311 310 307 304 304 305 304 302 299 296 294 294 293 293 293 292 292 293 294 293 292 292 291 290 290 289 286 283 281 282 282 279 279 279 277 277 277 277
265 268 269 268 268 267 270 270 271 272 273 276 277 277 277 279 286 291 295 300 302 306 310 310 312 315 317 315 311 312 313 314 313 311 312 312 313 315 318 318 318 318 317 315 315 314 313 311 308 305 304 303 304 305 304 301 298 297 297 296 295 294 293 292 294 294 293 294 294 293 292 291 290 290 289 288 288 285 283 283 281 279 280 278 275
266 270 272 272 274 276 278 279 279 279 279 279 280 282 283 283 285 288 291 294 297 305 309 307 308 311 310 308 306 308 317 325 321 315 313 313 316 318 318 319 321 323 322 319 317 315 313 311 308 306 303 301 303 305 305 304 302 301 300 299 297 296 295 295 295 295 294 295 295 293 293 293 293 292 292 292 292 290 289 289 286 286 288 283 278
269 275 280 283 285 285 286 286 285 285 288 291 290 288 288 290 291 293 295 297 302 310 312 312 316 317 316 315 315 319 331 337 332 327 325 324 325 325 324 326 326 324 321 319 317 315 315 313 311 307 302 301 301 303 304 303 303 302 300 298 297 296 295 295 294 294 294 293 292 291 291 292 292 292 292 292 292 292 291 290 289 288 290 287 284
268 273 280 286 288 292 295 293 291 292 297 304 306 301 297 298 301 302 304 309 317 322 326 331 334 332 330 334 335 335 339 338 336 337 336 333 333 333 332 329 324 322 322 323 319 318 318 317 314 307 302 300 300 301 301 300 300 299 298 297 297 296 295 295 294 294 293 291 290 290 289 289 289 289 290 290 291 292 291 290 290 290 290 288 286
272 274 275 279 284 292 298 301 301 301 303 310 320 321 312 311 318 319 314 318 325 332 339 340 338 335 337 343 341 336 335 332 331 336 335 330 327 327 329 328 326 327 327 326 321 317 318 319 317 312 307 303 301 300 300 300 299 298 298 298 299 299 298 296 296 295 294 292 290 288 288 288 288 288 288 290 290 289 289 289 289 290 289 289 287
274 274 273 275 277 283 291 300 303 305 311 311 320 328 323 322 334 336 326 320 327 334 335 332 331 334 336 335 332 328 328 327 327 332 331 326 324 326 329 330 329 330 329 327 322 317 315 317 320 320 316 310 306 304 302 301 300 300 300 300 300 300 298 296 294 292 291 290 289 287 286 287 287 286 286 287 287 286 286 286 286 287 288 289 288
266 270 274 277 278 281 289 297 298 301 307 304 308 320 322 326 334 336 330 323 326 328 327 325 323 328 332 329 327 328 327 327 327 328 327 327 328 329 331 329 330 332 332 331 328 324 321 323 327 328 326 324 319 315 311 308 305 303 303 303 302 300 297 295 293 291 290 289 287 285 284 284 284 284 284 283 284 286 288 288 287 286 286 287 287
261 266 272 279 281 283 287 290 292 293 293 292 297 305 310 313 310 315 321 317 318 320 319 317 315 323 328 326 326 326 325 329 333 331 330 330 331 332 333 333 335 337 337 338 339 336 335 336 338 339 339 339 336 332 330 326 320 314 312 311 310 308 305 303 302 301 301 300 297 294 292 291 290 289 289 288 287 288 289 290 291 289 287 286 286
259 261 264 266 269 274 279 281 282 284 284 285 289 292 300 308 302 303 308 306 307 310 314 313 313 321 323 321 323 322 325 334 338 334 333 334 335 336 338 340 341 342 345 347 347 346 348 348 348 349 349 347 346 345 345 342 338 334 331 328 326 325 323 320 320 319 318 317 313 311 307 304 302 299 298 297 294 293 294 294 294 292 290 287 286
257 263 264 260 266 274 276 276 279 285 288 285 282 280 291 305 303 300 298 298 301 305 313 316 314 316 316 319 322 321 326 333 331 331 336 339 342 343 344 347 348 348 351 352 349 351 354 352 351 352 351 349 350 350 349 348 348 347 346 344 342 340 338 335 334 332 329 327 324 322 318 314 311 307 305 303 300 299 299 298 296 295 293 291 288
255 259 259 258 273 281 280 285 289 292 290 284 282 280 292 299 294 290 294 295 299 301 304 307 308 310 315 321 322 320 325 327 325 330 337 340 346 349 348 348 350 351 352 350 348 351 352 350 349 350 350 349 350 350 350 351 351 350 349 347 346 343 341 339 337 336 334 331 329 326 323 320 317 313 310 306 303 302 300 298 298 296 294 293 291
258 262 261 257 263 266 269 281 287 288 286 282 288 297 293 289 276 279 290 292 294 295 293 295 300 301 307 315 319 318 318 320 322 324 325 332 343 352 351 349 348 348 347 346 345 346 347 347 348 349 348 348 348 349 349 350 349 348 347 346 345 342 340 339 337 335 333 331 329 326 324 321 319 317 314 310 308 305 303 301 299 296 293 292 291
255 264 264 259 258 258 257 264 270 273 275 276 282 282 275 270 272 275 284 290 291 288 287 292 296 296 299 305 309 306 307 313 317 316 317 327 339 346 348 347 344 344 345 344 342 344 345 344 346 348 348 347 348 348 347 347 347 347 347 347 345 343 341 339 337 335 333 331 329 326 324 321 319 318 315 313 311 308 307 306 304 301 298 295 292
243 247 250 259 269 262 257 261 262 261 269 277 281 278 271 269 273 272 277 289 295 292 292 298 301 302 304 306 306 301 300 307 311 312 315 323 334 341 344 343 344 346 347 346 344 343 343 344 347 348 346 346 347 347 347 347 347 348 348 346 344 342 340 338 336 335 333 331 329 327 324 321 319 318 315 313 311 309 308 307 305 304 301 297 293
245 244 244 256 263 257 258 262 258 257 265 270 270 269 266 265 269 272 279 289 296 296 299 307 312 314 317 315 314 314 315 316 315 316 317 320 328 338 341 340 341 345 346 346 344 344 343 344 348 348 346 346 347 347 346 346 347 347 345 343 341 339 338 336 334 333 332 329 327 325 322 321 318 316 315 313 311 308 306 305 304 303 302 299 294
248 251 246 242 246 248 253 254 249 251 254 256 262 267 267 270 276 283 289 293 297 303 314 327 330 333 336 333 331 331 333 333 328 327 328 325 328 335 339 336 335 339 343 342 341 343 344 345 348 350 349 349 350 349 347 347 346 345 342 339 338 337 335 334 332 330 329 326 324 322 320 318 316 314 313 311 309 307 305 304 303 302 301 299 295
250 251 249 241 238 242 246 244 245 249 253 259 267 269 272 279 285 289 296 305 322 346 352 352 348 347 348 345 343 340 338 338 334 333 334 331 329 332 336 335 332 334 337 338 339 341 342 344 348 351 351 352 352 350 348 346 345 343 339 337 335 334 332 330 329 327 325 323 321 319 317 315 313 312 310 309 308 306 305 304 302 301 300 297 294
253 249 254 249 239 240 243 242 247 253 259 266 268 268 273 279 287 300 332 353 2 9 7 3 357 353 351 346 343 341 338 339 340 339 338 336 332 331 333 332 328 329 333 334 335 336 339 342 346 349 351 351 351 348 346 344 343 340 336 334 332 330 328 326 324 322 320 318 316 314 313 311 309 308 307 306 305 304 304 303 302 301 299 296 294
248 252 258 248 231 233 237 237 241 245 247 252 250 253 260 270 340 359 7 10 14 14 7 0 354 349 347 344 342 343 342 342 343 342 340 338 333 330 331 329 327 328 330 331 332 333 336 341 345 348 349 348 348 345 343 340 339 336 332 329 327 325 324 322 319 317 315 313 311 310 308 307 305 304 303 302 301 300 300 299 298 298 297 296 292
244 254 257 238 226 232 233 231 228 221 216 209 201 189 169 354 6 16 21 22 17 6 358 352 349 345 344 346 346 345 344 343 342 340 338 336 332 329 329 329 327 327 328 329 330 332 334 339 344 346 346 345 344 341 339 336 334 332 328 325 324 322 321 320 318 316 315 313 312 311 309 307 305 303 302 300 298 297 296 296 295 294 294 293 289
247 255 250 235 236 236 229 224 208 192 182 172 178 186 198 246 47 40 24 19 3 354 351 348 347 346 348 348 347 345 343 340 338 336 334 332 331 330 329 329 327 326 327 327 328 329 331 336 341 343 343 341 339 337 335 332 330 328 325 323 322 321 320 319 318 317 316 315 315 314 312 310 308 306 303 301 298 297 295 294 293 292 291 290 288
243 248 243 237 240 232 221 209 187 177 175 175 191 201 201 195 161 38 7 359 351 351 349 349 350 349 348 347 345 342 338 336 334 332 332 331 332 333 332 332 329 327 327 326 326 328 330 333 337 340 340 338 335 333 331 329 328 326 325 323 322 322 323 322 321 320 320 319 317 316 314 312 311 309 306 304 301 298 295 293 291 290 289 288 287
237 238 238 238 236 224 209 193 180 179 183 193 204 201 198 202 210 317 345 345 347 349 348 349 347 344 342 339 338 336 332 332 330 329 330 330 332 333 334 336 333 330 329 326 324 327 330 332 335 337 337 334 332 330 329 328 328 327 326 326 326 326 326 326 325 324 323 322 321 319 318 316 314 313 311 308 305 302 299 296 294 293 291 290 290
233 231 234 234 224 210 196 187 186 190 197 204 202 199 205 217 244 308 336 343 346 345 344 344 340 337 335 332 332 332 330 330 329 328 329 329 331 332 332 334 334 332 329 325 322 323 328 330 332 334 333 331 329 329 328 328 329 329 329 328 329 328 328 327 326 326 325 323 323 321 320 318 316 315 313 311 309 306 304 301 300 298 296 294 292
228 225 227 220 208 196 189 189 195 199 203 204 201 205 215 232 267 313 335 341 342 340 338 337 333 331 330 330 332 331 330 328 327 327 327 328 329 330 330 331 331 330 328 324 319 319 325 328 328 330 330 328 328 328 327 328 329 329 329 329 329 328 328 327 326 326 324 323 323 322 321 319 317 315 313 311 310 308 306 305 303 300 297 295 293
223 219 215 205 196 191 191 196 200 202 203 202 206 215 222 242 282 324 334 337 337 333 332 330 328 328 329 330 331 329 327 325 324 324 324 326 327 327 328 328 329 328 325 322 317 316 322 325 324 326 328 326 326 327 326 328 329 329 329 329 329 328 328 327 326 325 324 323 323 323 321 319 316 314 312 311 310 309 307 306 304 301 298 296 295
215 210 204 197 192 192 196 200 201 201 203 205 211 219 230 263 307 327 328 331 327 325 327 326 327 329 327 327 325 323 323 321 320 321 321 323 324 325 325 325 327 325 323 321 316 315 319 322 322 324 326 325 325 327 327 327 328 329 329 330 330 329 328 328 327 326 325 324 324 324 322 318 316 314 313 312 310 309 308 307 306 304 301 299 297
208 203 197 193 192 195 199 200 200 201 205 210 216 224 244 283 310 318 319 321 321 322 325 325 326 325 323 322 321 321 321 319 318 318 319 320 322 323 323 323 324 324 323 321 318 316 318 320 322 324 326 327 327 329 330 329 329 329 329 331 331 331 330 328 327 327 326 326 326 326 323 320 317 316 315 314 312 310 309 308 308 307 305 304 302
201 197 194 193 194 197 198 199 202 205 210 215 222 235 255 280 297 308 312 315 318 321 323 322 322 320 319 319 319 320 319 317 316 316 318 319 320 322 322 322 323 323 323 323 321 320 319 320 323 324 326 329 330 332 333 333 332 331 330 331 332 331 330 329 328 327 327 329 329 327 324 322 321 320 318 316 314 312 311 310 308 307 308 309 307
195 192 192 195 196 198 199 202 206 209 215 221 228 240 255 276 294 303 308 313 317 319 319 319 319 318 318 318 318 318 317 315 315 315 317 319 320 322 322 322 323 323 325 325 324 324 322 321 323 325 327 329 331 333 334 334 333 332 331 331 331 331 330 329 329 327 328 331 332 328 324 324 326 326 322 318 317 315 312 310 308 307 308 310 308
193 192 193 195 198 201 203 206 209 213 219 223 230 242 256 275 290 298 306 312 314 316 317 318 319 319 319 318 317 316 315 314 314 315 317 319 320 321 322 322 323 324 326 328 327 327 326 324 324 326 329 330 331 333 334 333 332 332 332 332 332 332 331 330 329 328 330 332 332 330 327 328 330 329 323 320 320 319 316 312 308 305 307 308 307
193 195 196 197 200 203 205 208 212 216 220 225 232 243 257 271 287 300 307 312 314 316 318 318 319 319 318 317 316 314 313 313 314 315 317 318 319 320 321 323 325 326 327 329 329 329 328 327 327 328 330 331 331 333 335 334 333 333 334 333 333 333 331 330 329 330 333 334 333 332 332 332 333 330 326 324 324 322 319 315 309 308 310 309 308
195 196 198 200 202 204 206 210 215 219 222 226 232 242 258 274 292 303 308 313 315 317 318 318 319 318 317 316 314 314 314 315 315 317 318 319 320 322 324 326 327 328 329 330 330 330 330 330 330 331 332 333 333 334 336 336 334 334 335 334 333 333 332 330 329 331 335 336 335 334 333 332 332 330 329 330 330 329 326 321 316 316 318 315 312
197 199 200 202 203 204 209 214 216 218 222 227 235 247 264 281 295 304 309 314 316 316 318 318 317 316 315 315 315 316 316 316 318 319 320 321 323 326 328 329 329 330 330 331 333 334 334 333 333 334 334 334 334 334 335 335 334 335 336 334 332 332 333 332 330 332 335 337 336 334 331 331 331 331 332 332 335 337 336 333 329 326 325 320 314
198 201 203 204 206 208 211 214 216 220 224 229 241 255 271 286 296 304 310 312 314 315 315 315 315 315 315 315 316 316 317 318 320 321 322 324 327 329 330 330 331 331 333 335 336 337 336 335 335 335 334 334 335 335 335 336 335 334 335 333 330 330 332 331 330 331 333 334 334 331 329 330 331 332 333 333 337 340 339 338 336 333 330 325 317
198 201 203 206 209 212 214 215 218 221 226 233 246 260 273 288 296 302 308 309 312 314 313 314 314 315 316 316 316 317 317 319 320 322 325 327 328 330 331 331 333 334 336 338 338 338 337 336 336 336 335 335 336 335 334 335 334 331 331 330 328 328 329 328 328 330 331 332 332 328 326 329 331 332 332 333 337 340 338 337 336 335 333 327 321
201 203 205 208 210 213 216 217 219 222 229 238 251 264 276 288 296 302 307 309 311 312 312 314 315 316 317 316 316 317 317 318 320 323 325 327 329 330 331 333 336 338 339 338 338 339 338 337 336 336 334 334 336 334 331 331 331 328 327 327 325 325 326 325 325 327 330 332 331 325 323 328 332 331 330 332 335 339 338 335 334 335 333 327 322
203 205 208 210 212 215 216 217 220 225 233 243 253 267 279 290 299 305 308 310 311 312 314 315 317 317 317 316 316 316 317 318 320 323 325 327 328 329 332 336 339 340 340 339 339 340 339 337 336 336 334 333 334 333 329 329 329 326 324 323 322 322 323 321 320 322 327 332 330 324 322 326 331 330 329 331 334 336 336 333 332 335 334 331 327
205 207 209 212 214 216 216 218 222 227 235 246 257 272 283 293 302 306 308 310 312 314 316 318 318 317 316 316 316 316 317 318 320 323 325 326 328 331 334 338 340 341 342 340 340 339 338 337 336 337 336 331 331 332 330 327 325 324 324 322 320 318 317 317 316 317 323 329 328 324 322 326 330 329 327 330 332 333 333 332 332 334 334 334 332
208 209 211 213 214 216 217 219 225 230 238 250 262 276 288 297 303 306 309 312 314 316 319 319 318 317 316 315 315 315 317 319 321 324 325 327 330 333 336 338 340 341 342 341 340 339 338 337 336 338 338 333 330 332 333 329 325 323 322 317 315 315 315 315 314 314 319 325 327 325 322 325 330 329 326 328 329 330 332 331 330 330 331 333 331
210 211 213 214 215 216 219 222 227 233 242 254 267 281 293 299 304 307 310 313 316 319 321 320 318 317 315 314 315 316 319 322 324 326 327 330 333 335 336 339 340 342 343 341 341 340 340 340 338 337 338 336 332 332 335 333 325 318 315 313 314 316 315 313 311 311 314 319 324 324 321 325 329 327 324 326 327 329 331 330 329 328 328 330 330
212 213 215 216 216 218 221 225 231 237 247 259 272 286 295 300 305 310 312 316 319 321 321 319 317 315 314 315 316 319 323 326 328 329 330 332 334 335 337 339 341 343 343 340 339 339 340 341 339 337 337 337 335 335 334 329 321 317 317 316 316 316 315 313 311 311 311 315 323 326 321 322 327 324 324 327 329 330 330 330 331 332 330 330 330
212 213 214 215 217 219 223 227 233 241 252 264 276 288 297 303 307 312 315 318 320 320 319 317 315 314 315 316 318 322 326 328 331 332 333 333 334 335 336 338 341 342 341 338 338 339 339 340 338 336 336 337 338 336 330 325 324 325 321 316 317 320 321 320 319 318 317 319 327 328 321 320 324 324 325 328 331 332 331 333 339 339 335 333 332
213 214 215 216 217 220 224 229 235 244 255 267 280 291 300 306 310 314 317 317 317 317 316 314 314 314 315 317 320 324 327 330 333 334 334 334 335 336 336 337 340 341 339 338 338 339 339 338 337 337 339 340 340 335 331 330 330 324 319 321 327 331 329 325 323 322 322 324 328 326 321 322 325 326 325 327 330 330 331 339 347 346 346 354 27
215 215 216 217 218 221 224 230 237 247 258 271 285 296 303 308 312 315 315 314 315 314 313 313 313 314 316 319 322 325 328 332 334 335 335 336 337 338 338 339 339 339 338 338 338 338 337 336 337 340 342 341 338 335 336 336 332 326 330 336 339 337 332 328 327 325 324 325 326 325 325 325 326 327 327 328 329 328 331 343 351 355 21 57 94
216 216 216 217 219 222 226 231 238 248 261 275 288 298 304 309 312 312 312 312 312 312 312 312 313 315 318 321 324 327 330 333 334 336 338 339 339 340 340 338 337 337 337 337 337 336 335 335 337 339 340 340 339 340 340 338 335 334 338 344 345 341 336 331 329 327 323 321 325 329 328 325 324 326 330 331 328 326 331 345 352 3 58 79 96